Weather in Ljusdal

Sweden     61°49′33″N   16°06′09″E
temp.,
°C
wind,
m/s
gust,
m/s
humid.,
%
clouds,
%
prec.,
mm/h
press.,
hPa
HPBL,
m
19 january, tue
tue1901:00−13ssw118933 0.0 100920
04:00−12sw119445 0.0 100821
07:00−11s119569 0.0 100721
10:00−9se1197100 0.0 100722
13:00−6ese1297100 0.1 1007105
16:00−8e1298100 0.1 100621
19:00−9e129799 0.4 100653
22:00−8ene129797 0.6 100560
20 january, wed
wed2001:00−8ene129798 0.9 100551
04:00−7ene2697100 0.5 1002190
07:00−7ene2498100 0.8 1001151
10:00−2e51196100 0.7 999754
13:00−2e61195100 2.1 997850
16:00−2e61296100 1.8 994857
19:00−3e71396100 4.4 992946
22:00−4ene61295100 2.1 991829
21 january, thu
thu2101:00−5ne4995100 3.1 991650
04:00−5ne3996100 0.3 991538
07:00−5ne3996100 0.9 991681
10:00−5ene51095100 2.0 990738
13:00−5ene41095100 3.7 989654
16:00−5ene41196100 1.4 986602
19:00−4ene61395100 3.0 983514
22:00−3e3797100 4.5 982272
22 january, fri
fri2201:00−2se269695 4.6 983228
04:00−3ese289591 0.0 983273
07:00−2ese3109796 0.1 983522
10:00−1se31196100 0.3 983682
13:000se31095100 0.3 983748
16:00−1ese2797100 0.0 983304
19:00−1ene2599100 0.9 981210
22:000nne4899100 3.6 980348
23 january, sat
sat2301:00−5nnw51096100 8.8 980414
04:00−9wnw71393100 3.5 982516
07:00−12nw31093100 4.1 985404
10:00−14nw399592 0.1 987311
13:00−13nnw389495 0.2 989374
16:00−13nw3895100 0.5 991389
19:00−14wnw2695100 0.6 993328
22:00−15wnw2396100 0.1 996152